Stations météo

réclame
Mon MeteoGroup
Fair Isle, Grande-Bretagne (3008): Température de l'air & dewpoint: 29.03.2020 22:00:00 - 04.04.2020 22:00:00 (BST)Fair Isle, Grande-Bretagne (3008): Température de l'air -20cm & Température de l'air -100cm: 29.03.2020 22:00:00 - 04.04.2020 22:00:00 (BST)Fair Isle, Grande-Bretagne (3008): Vitesse du vent & gusts: 29.03.2020 22:00:00 - 04.04.2020 22:00:00 (BST)Fair Isle, Grande-Bretagne (3008): Direction du vent: 29.03.2020 22:00:00 - 04.04.2020 22:00:00 (BST)Fair Isle, Grande-Bretagne (3008): reduced air pressure: 29.03.2020 22:00:00 - 04.04.2020 22:00:00 (BST)Fair Isle, Grande-Bretagne (3008): visibility: 29.03.2020 22:00:00 - 04.04.2020 22:00:00 (BST)Fair Isle, Grande-Bretagne (3008): Quantités de précipitations: 29.03.2020 22:00:00 - 04.04.2020 22:00:00 (BST)
Date & Time tt [°C] td [°C] tt -20cm [°C] tt -100cm [°C] ff [km/h] ff [knt] fx [km/h] fx [knt] dd ppp [hPa] vv [km] rr [mm]
04.04.2020 22:00:00 7,3 5,5 - - 22 12 - - SSE 1011,7 22 0,0
04.04.2020 21:00:00 6,9 5,7 - - 18 10 - - SSE 1012,0 17 0,0
04.04.2020 20:00:00 6,9 5,3 - - 21 11 - - S 1011,9 30 0,0
04.04.2020 19:00:00 7,1 5,5 - - 16 9 - - S 1011,9 28 0,0
04.04.2020 18:00:00 7,5 5,8 - - 24 13 - - S 1011,8 30 0,0
04.04.2020 17:00:00 7,5 5,8 - - 26 14 - - S 1011,7 25 0,0
04.04.2020 16:00:00 7,5 6,0 - - 26 14 - - SSW 1011,7 22 0,0
04.04.2020 15:00:00 7,6 6,1 - - 24 13 - - SSW 1011,4 19 0,0
04.04.2020 14:00:00 7,3 5,8 - - 26 14 - - SSW 1011,1 19 0,0
04.04.2020 13:00:00 6,9 5,6 - - 29 16 - - SSW 1010,9 16 0,0
04.04.2020 12:00:00 6,6 5,3 - - 35 19 50 27 S 1010,7 19 0,0
04.04.2020 11:00:00 5,9 4,8 - - 34 18 48 26 S 1010,5 14 0,2
04.04.2020 10:00:00 4,9 3,5 5,7 6,2 35 19 46 25 S 1010,6 10 0,4
04.04.2020 09:00:00 4,8 3,0 - - 26 14 - - SE 1010,5 12 0,2
04.04.2020 08:00:00 4,0 2,2 - - 21 11 - - SSE 1010,9 40 0,6
04.04.2020 07:00:00 3,4 1,8 - - 13 7 - - ESE 1010,9 12 0,2
04.04.2020 06:00:00 3,2 1,5 - - 13 7 - - ESE 1011,0 45 0,8
04.04.2020 05:00:00 3,4 1,1 - - 9 5 - - ESE 1011,1 22 0,0
04.04.2020 04:00:00 3,2 0,7 - - 11 6 - - ESE 1011,4 45 0,0
04.04.2020 03:00:00 2,8 0,6 - - 9 5 - - ESE 1011,6 50 0,2
04.04.2020 02:00:00 3,1 -0,5 - - 9 5 - - SSW 1011,6 28 0,0
04.04.2020 01:00:00 3,5 -0,8 - - 8 4 - - SE 1011,7 45 0,0
04.04.2020 00:00:00 2,7 -2,1 - - 5 3 - - S 1011,6 35 0,0
03.04.2020 23:00:00 2,8 -2,5 - - 4 2 - - S 1011,4 45 0,0
03.04.2020 22:00:00 3,3 -1,5 - - 11 6 - - SSW 1011,4 50 0,0
03.04.2020 21:00:00 3,4 -0,6 - - 11 6 - - SW 1011,3 40 0,0
03.04.2020 20:00:00 3,1 -3,4 - - 8 4 - - WNW 1011,0 35 0,0
03.04.2020 19:00:00 3,8 -4,0 - - 9 5 - - W 1010,7 45 0,0
03.04.2020 18:00:00 4,7 -3,5 - - 11 6 - - W 1010,4 30 0,0
03.04.2020 17:00:00 4,1 -2,9 - - 16 9 - - WNW 1010,3 45 0,0
03.04.2020 16:00:00 4,3 -3,3 - - 15 8 - - WNW 1009,9 40 0,0
03.04.2020 15:00:00 4,7 -3,1 - - 15 8 - - WNW 1009,9 40 0,0
03.04.2020 14:00:00 4,3 -3,5 - - 18 10 - - W 1009,5 30 0,0
03.04.2020 13:00:00 4,6 -3,9 - - 18 10 - - W 1009,0 40 0,0
03.04.2020 12:00:00 4,1 -4,4 - - 22 12 - - WNW 1008,7 35 0,0
03.04.2020 11:00:00 3,3 -3,5 - - 24 13 - - WNW 1008,3 35 0,0
03.04.2020 10:00:00 1,0 -0,8 5,7 6,2 11 6 - - WSW 1008,0 11 0,4
03.04.2020 09:00:00 1,9 -2,3 - - 24 13 - - WNW 1007,5 11 0,2
03.04.2020 08:00:00 2,7 -3,1 - - 21 11 - - NW 1007,0 30 0,0
03.04.2020 07:00:00 2,9 -4,8 - - 22 12 48 26 WNW 1006,6 26 0,0
03.04.2020 06:00:00 2,6 -5,5 - - 31 17 55 30 WNW 1006,5 30 0,0
03.04.2020 05:00:00 2,7 -6,1 - - 29 16 - - WNW 1006,3 50 0,0
03.04.2020 04:00:00 2,8 -4,8 - - 31 17 48 26 WNW 1006,1 30 0,0
03.04.2020 03:00:00 3,0 -3,6 - - 31 17 50 27 WNW 1006,0 23 0,0
03.04.2020 02:00:00 2,8 -5,1 - - 34 18 52 28 WNW 1006,1 30 0,0
03.04.2020 01:00:00 2,8 -5,5 - - 35 19 61 33 WNW 1005,8 29 0,0
03.04.2020 00:00:00 2,8 -4,9 - - 34 18 76 41 WNW 1005,6 25 0,0
02.04.2020 23:00:00 2,9 -7,0 - - 35 19 63 34 NW 1005,2 40 0,0
02.04.2020 22:00:00 3,0 -4,7 - - 37 20 61 33 NW 1004,8 35 0,0
02.04.2020 21:00:00 3,4 -4,0 - - 35 19 67 36 NW 1004,1 21 0,0
02.04.2020 20:00:00 3,3 -4,8 - - 44 24 65 35 NNW 1003,5 20 0,0
02.04.2020 19:00:00 3,6 -3,2 - - 44 24 68 37 NW 1002,6 15 0,0
02.04.2020 18:00:00 4,0 -1,6 - - 39 21 80 43 NW 1001,6 14 0,0
02.04.2020 17:00:00 3,1 -0,1 - - 48 26 80 43 NNW 1000,6 13 0,2
02.04.2020 16:00:00 4,7 -1,2 - - 44 24 76 41 NW 999,2 9 0,6
02.04.2020 15:00:00 2,5 0,2 - - 46 25 89 48 NW 998,7 7 0,0
02.04.2020 14:00:00 3,8 1,2 - - 52 28 93 50 WNW 997,3 9 0,0
02.04.2020 13:00:00 4,4 -0,6 - - 61 33 96 52 WNW 995,9 9 0,0
02.04.2020 12:00:00 4,3 -1,5 - - 63 34 106 57 WNW 995,1 9 0,0
02.04.2020 11:00:00 3,6 -4,5 - - 70 38 106 57 W 994,3 13 0,0
02.04.2020 10:00:00 2,7 -2,4 6,4 6,2 61 33 104 56 W 994,0 12 0,0
02.04.2020 09:00:00 1,4 -2,2 - - 63 34 104 56 WNW 993,6 6 0,0
02.04.2020 08:00:00 2,8 -1,5 - - 65 35 100 54 W 993,0 7 0,2
02.04.2020 07:00:00 3,6 0,3 - - 48 26 96 52 W 992,8 11 0,0
02.04.2020 06:00:00 3,7 1,4 - - 61 33 106 57 W 993,0 7 0,4
02.04.2020 05:00:00 5,0 2,8 - - 57 31 107 58 W 993,5 7 0,6
02.04.2020 04:00:00 6,1 2,8 - - 70 38 115 62 W 995,0 4,2 0,0
02.04.2020 03:00:00 6,2 3,1 - - 59 32 102 55 W 996,4 8 0,2
02.04.2020 02:00:00 5,9 3,2 - - 57 31 89 48 W 998,8 9 0,0
02.04.2020 01:00:00 6,7 2,3 - - 57 31 80 43 WSW 1001,0 9 0,0
02.04.2020 00:00:00 6,5 2,5 - - 54 29 78 42 WSW 1002,5 11 0,0
01.04.2020 23:00:00 6,8 2,4 - - 46 25 68 37 W 1004,5 11 0,0
01.04.2020 22:00:00 6,7 2,0 - - 44 24 61 33 W 1006,0 12 0,0
01.04.2020 21:00:00 6,7 1,0 - - 39 21 70 38 W 1007,0 12 0,0
01.04.2020 20:00:00 7,0 1,4 - - 34 18 63 34 W 1007,7 13 0,0
01.04.2020 19:00:00 6,8 2,2 - - 44 24 63 34 W 1008,3 11 0,0
01.04.2020 18:00:00 7,2 1,9 - - 37 20 67 36 W 1008,6 11 0,0
01.04.2020 17:00:00 7,3 2,1 - - 48 26 70 38 W 1008,8 12 0,0
01.04.2020 16:00:00 7,4 3,4 - - 39 21 63 34 W 1009,4 14 0,0
01.04.2020 15:00:00 7,6 2,8 - - 37 20 65 35 W 1009,5 14 0,4
01.04.2020 14:00:00 7,3 2,5 - - 37 20 70 38 W 1009,7 14 0,0
01.04.2020 13:00:00 8,1 4,2 - - 41 22 59 32 W 1009,6 14 0,0
01.04.2020 12:00:00 7,4 6,0 - - 28 15 63 34 W 1009,8 11 0,2
01.04.2020 11:00:00 7,6 6,8 - - 50 27 65 35 WSW 1010,0 7 0,0
01.04.2020 10:00:00 6,9 6,0 6,4 6,0 46 25 70 38 WSW 1010,8 6 0,2
01.04.2020 09:00:00 7,0 5,5 - - 52 28 70 38 WSW 1011,5 8 0,0
01.04.2020 08:00:00 7,2 5,5 - - 46 25 63 34 WSW 1012,7 8 0,0
01.04.2020 07:00:00 7,1 5,3 - - 41 22 55 30 WSW 1013,8 9 0,0
01.04.2020 06:00:00 7,0 5,2 - - 39 21 52 28 WSW 1014,9 9 0,0
01.04.2020 05:00:00 6,6 4,6 - - 35 19 61 33 W 1015,9 12 0,0
01.04.2020 04:00:00 6,4 4,2 - - 35 19 54 29 W 1017,1 13 0,0
01.04.2020 03:00:00 6,3 3,9 - - 35 19 50 27 W 1018,6 16 0,0
01.04.2020 02:00:00 6,3 4,1 - - 34 18 52 28 W 1019,6 12 0,0
01.04.2020 01:00:00 6,5 4,4 - - 29 16 48 26 W 1020,8 13 0,0
01.04.2020 00:00:00 6,9 4,9 - - 29 16 48 26 W 1021,7 10 0,0
31.03.2020 23:00:00 7,0 5,1 - - 26 14 48 26 W 1022,9 10 0,0
31.03.2020 22:00:00 7,2 5,3 - - 24 13 - - W 1023,6 10 0,0
31.03.2020 21:00:00 7,5 4,8 - - 28 15 54 29 W 1024,3 12 0,0
31.03.2020 20:00:00 7,5 5,0 - - 34 18 52 28 W 1024,9 11 0,0
31.03.2020 19:00:00 7,5 5,2 - - 31 17 50 27 W 1025,4 10 0,0
31.03.2020 18:00:00 7,7 5,4 - - 29 16 52 28 WNW 1025,5 12 0,0
31.03.2020 17:00:00 7,3 5,3 - - 31 17 50 27 W 1025,8 10 0,2
31.03.2020 16:00:00 6,8 4,9 - - 35 19 54 29 WNW 1026,6 4,7 0,0
31.03.2020 15:00:00 7,1 3,5 - - 31 17 59 32 W 1027,3 16 0,0
31.03.2020 14:00:00 7,1 4,8 - - 31 17 55 30 WNW 1027,9 10 0,0
31.03.2020 13:00:00 7,7 5,7 - - 29 16 54 29 W 1028,2 14 0,2
31.03.2020 12:00:00 7,2 4,7 - - 31 17 54 29 W 1028,7 18 0,0
31.03.2020 11:00:00 6,8 5,0 - - 24 13 48 26 WNW 1029,2 20 0,0
31.03.2020 10:00:00 5,6 4,2 6,2 6,0 28 15 50 27 W 1029,7 6 0,2
31.03.2020 09:00:00 5,6 3,6 - - 39 21 54 29 W 1030,1 12 0,0
31.03.2020 08:00:00 6,2 4,4 - - 28 15 50 27 W 1030,2 21 0,0
31.03.2020 07:00:00 6,3 4,0 - - 34 18 48 26 W 1030,5 3,4 0,0
31.03.2020 06:00:00 6,3 3,9 - - 28 15 48 26 WNW 1030,9 23 0,2
31.03.2020 05:00:00 5,6 3,9 - - 34 18 54 29 WNW 1031,3 35 0,0
31.03.2020 04:00:00 6,0 4,7 - - 29 16 46 25 W 1031,7 4,7 0,0
31.03.2020 03:00:00 5,7 4,6 - - 22 12 48 26 W 1032,3 29 0,2
31.03.2020 02:00:00 6,0 4,7 - - 24 13 - - W 1032,7 23 0,0
31.03.2020 01:00:00 5,8 4,5 - - 21 11 - - WNW 1033,4 40 0,2
31.03.2020 00:00:00 6,0 4,3 - - 28 15 - - WSW 1033,9 4,4 0,0
30.03.2020 23:00:00 5,7 3,7 - - 24 13 - - W 1034,4 13 0,0
30.03.2020 22:00:00 6,2 3,2 - - 15 8 - - W 1035,1 10 0,0
30.03.2020 21:00:00 6,5 3,9 - - 16 9 - - W 1035,1 18 0,0
30.03.2020 20:00:00 6,7 3,1 - - 18 10 - - W 1035,2 17 0,0
30.03.2020 19:00:00 7,0 4,1 - - 16 9 - - W 1035,4 17 0,0
30.03.2020 18:00:00 7,4 4,4 - - 16 9 - - WNW 1035,6 20 0,0
30.03.2020 17:00:00 7,8 4,5 - - 16 9 - - WNW 1035,8 21 0,0
30.03.2020 16:00:00 8,3 5,0 - - 15 8 - - WNW 1036,0 18 0,0
30.03.2020 15:00:00 8,2 4,6 - - 18 10 - - NW 1036,5 15 0,0
30.03.2020 14:00:00 8,7 5,4 - - 18 10 - - NW 1036,8 18 0,0
30.03.2020 13:00:00 8,4 4,7 - - 18 10 - - NNW 1036,8 20 0,0
30.03.2020 12:00:00 8,1 4,2 - - 22 12 - - NNW 1036,9 28 0,0
30.03.2020 11:00:00 8,1 4,1 - - 22 12 - - NNW 1037,2 19 0,0
30.03.2020 10:00:00 7,6 3,6 5,7 6,0 31 17 46 25 NW 1037,2 20 0,0
30.03.2020 09:00:00 7,7 4,2 - - 26 14 - - NNW 1037,1 16 0,0
30.03.2020 08:00:00 7,3 2,8 - - 28 15 - - NW 1036,9 26 0,0
30.03.2020 07:00:00 7,2 2,1 - - 31 17 48 26 NNW 1037,0 29 0,0
30.03.2020 06:00:00 7,0 2,5 - - 37 20 52 28 NNW 1037,0 23 0,0
30.03.2020 05:00:00 6,7 2,7 - - 34 18 59 32 NNW 1037,2 24 0,0
30.03.2020 04:00:00 6,5 3,1 - - 26 14 50 27 NW 1037,4 16 0,0
30.03.2020 03:00:00 6,4 3,2 - - 31 17 48 26 NNW 1037,8 16 0,0
30.03.2020 02:00:00 6,4 3,7 - - 31 17 48 26 NNW 1038,5 14 0,0
30.03.2020 01:00:00 6,3 4,0 - - 24 13 - - NW 1038,8 13 0,0
30.03.2020 00:00:00 6,2 3,6 - - 24 13 - - NNW 1039,0 14 0,0
29.03.2020 23:00:00 6,4 3,4 - - 28 15 - - NNW 1039,3 16 0,0
29.03.2020 22:00:00 6,5 2,5 - - 29 16 - - NNW 1039,6 16 0,0

tt = Température de l'air
td = dewpoint
tt -20cm = Température de l'air -20cm
tt -100cm = Température de l'air -100cm
ff = Vitesse du vent
fx = gusts
dd = Direction du vent
ppp = reduced air pressure
vv = visibility
rr = Quantités de précipitations

stations d'obs. à proximité